Location: ???? ????????
(44.2382°N, 135.4003°E)
Time: 01:43:35
(UTC+00:00)

Meteor 1-22 Rocket - Pass Details

Date: 19 May 2025
Orbit: 787 x 938 km, 81.2° (Epoch: 16 June)

Event Time Altitude Azimuth Distance (km) Brightness Sun altitude
Rises 16:02:10 0° 348° (NNW) 3,354 8.3 -24.0°
Reaches altitude 10° 16:04:36 10° 347° (NNW) 2,401 7.3 -23.9°
Maximum altitude 16:09:59 76° 263° (W) 821 4.0 -23.6°
Enters shadow 16:10:51 61° 199° (SSW) 896 4.0 -23.5°
